#timestamp,LO_Frequency,Hit,StdDev 
1566442815.7,286046999.8,N
1566442835.5,286047001.2,N
1566442855.3,286046999.7,N
1566442875.2,286046998.3,N
1566442895.0,286046998.1,N
1566442895.9,286046998.1,N
1566442915.8,286047000.4,N
1566442935.6,286047000.6,N
1566442955.4,286046998.3,N
1566442975.3,286046998.3,N
1566442995.1,286046999.1,N
1566443015.9,286046998.1,N
1566443035.7,286046999.0,N
1566443055.5,286046998.1,N
1566443075.4,286046998.2,N
1566443095.2,286047000.9,N
1566443115.1,286046999.8,N
1566443116.0,286046999.8,N
1566443135.8,286047002.8,N
1566443155.6,286046998.5,N
1566443175.5,286047000.0,N
1566443195.3,286047002.8,N
1566443215.2,286047002.3,N
1566443235.9,286047002.2,N
1566443255.7,286047000.3,N
1566443275.6,286046999.9,N
1566443295.4,286047000.2,N
1566443315.2,286047001.1,N
1566443335.1,286047000.1,N
1566443336.0,286047000.1,N
1566443355.8,286047000.8,N
1566443375.7,286046998.3,N
1566443395.5,286047000.8,N
1566443415.3,286046999.1,N
1566443435.2,286046998.9,N
1566443455.0,286046998.4,N
1566443455.9,286046998.4,N
1566443475.8,286046998.4,N
1566443495.6,286046998.2,N
1566443515.4,286047001.0,N
1566443535.3,286047000.8,N
1566443555.1,286046999.7,N
1566443575.9,286047001.9,N
1566443595.7,286047001.4,N
1566443615.5,286047001.3,N
1566443635.4,286047002.0,N
1566443655.2,286046999.8,N
1566443675.0,286047000.2,N
1566443676.0,286047000.2,N
1566443695.8,286047002.4,N
1566443715.6,286047000.0,N
1566443735.5,286047002.3,N
1566443755.3,286047002.8,N
1566443775.1,286047000.2,N
1566443795.9,286047000.4,N
1566443815.7,286047002.5,N
1566443835.6,286047001.9,N
1566443855.4,286047001.8,N
1566443875.2,286047003.9,N
1566443895.1,286047001.3,N
1566443896.0,286047001.3,N
1566443915.8,286047002.1,N
1566443935.7,286047004.0,N
1566443955.5,286047004.1,N
1566443975.3,286047004.0,N
1566443995.2,286047002.1,N
1566444015.0,286047001.5,N
1566444015.9,286047001.5,N
1566444035.8,286047002.2,N
1566444055.6,286047002.1,N
1566444075.4,286047002.2,N
1566444095.3,286047002.5,N
1566444115.1,286047002.5,N
1566444135.8,286047002.3,N
1566444155.7,286047001.5,N
1566444175.5,286047002.8,N
1566444195.4,286047001.5,N
1566444215.2,286047001.8,N
1566444235.0,286047001.4,N
1566444235.9,286047001.4,N
1566444255.8,286047001.3,N
1566444275.6,286047001.7,N
1566444295.5,286047004.0,Y
1566444315.3,286046998.3,P
1566444335.1,286047000.8,N
1566444355.9,286046998.1,N
1566444375.7,286046998.2,N
1566444395.5,286047001.2,N
1566444415.4,286046998.6,N
1566444435.2,286046998.8,N
1566444455.1,286047000.8,N
1566444456.0,286047000.8,N
1566444475.8,286046998.5,N
1566444495.6,286046998.8,N
1566444515.5,286046999.5,N
1566444535.3,286046997.2,N
1566444555.1,286046997.3,N
1566444575.9,286046996.5,N
1566444595.7,286046998.4,N
1566444615.6,286046999.3,N
1566444635.4,286046996.8,N
1566444655.2,286046997.7,N
1566444675.1,286046997.7,N
1566444676.0,286046997.7,N
1566444695.8,286046997.2,N
1566444715.7,286046995.3,Y
1566444735.5,286046997.0,P
1566444755.3,286046995.4,P
1566444775.2,286046994.9,P
1566444795.0,286046997.4,N
1566444795.9,286046997.4,N
1566444815.8,286046995.4,Y
1566444835.6,286047000.5,P
1566444855.4,286047002.3,N
1566444875.3,286047000.5,N
1566444895.1,286046999.0,N
1566444915.8,286046999.6,N
1566444935.7,286046998.2,N
1566444955.5,286046999.6,N
1566444975.4,286047001.1,N
1566444995.2,286047000.1,N
1566445015.0,286046998.5,N
1566445035.3,286047000.1,N
1566445055.1,286047000.2,N
1566445075.9,286046999.9,N
1566445095.7,286046999.9,N
1566445115.6,286046998.1,N
1566445135.4,286047001.0,N
1566445155.2,286046999.7,N
1566445175.1,286047002.7,N
1566445176.0,286047002.7,N
1566445195.8,286047002.5,N
1566445215.6,286047001.5,N
1566445235.5,286047004.3,N
1566445255.3,286047004.1,N
1566445275.2,286047002.9,N
1566445295.9,286047003.0,N
1566445315.7,286047003.5,N
1566445335.6,286047003.0,N
1566445355.4,286047003.7,N
1566445375.2,286047003.8,N
1566445395.1,286047001.6,N
1566445396.0,286047001.6,N
1566445415.8,286047001.9,N
1566445465.7,286047003.7,E
1566445475.6,286047002.5,N
1566445495.4,286047000.5,P
1566445515.3,286046998.2,N
1566445535.1,286046998.8,N
1566445555.8,286046998.5,N
1566445575.7,286046999.3,N
1566445595.5,286046996.5,N
1566445615.4,286046997.5,N
1566445635.2,286046997.1,N
1566445655.0,286046996.7,N
1566445656.0,286046996.7,N
1566445675.8,286046997.9,N
1566445695.6,286046997.7,N
1566445715.5,286046997.8,N
1566445735.3,286046999.4,N
1566445755.1,286046999.4,N
1566445775.9,286046998.5,N
1566445795.7,286047000.9,N
1566445815.6,286047000.0,N
1566445835.4,286047000.8,N
1566445855.2,286047001.1,N
1566445875.1,286046998.5,N
1566445876.0,286046998.5,N
1566445895.8,286046999.1,N
1566445915.7,286046996.6,N
1566445935.5,286046999.3,N
1566445955.3,286047000.7,N
1566445975.2,286046997.2,N
1566445995.0,286046997.5,N
1566445995.9,286046997.5,N
1566446015.7,286046997.7,N
1566446035.6,286046999.2,N
1566446055.4,286047001.2,N
1566446075.3,286047000.7,N
1566446095.1,286046998.4,N
1566446096.0,286046998.4,N
1566446115.8,286046998.8,N
1566446135.7,286047001.0,N
1566446155.5,286047000.5,N
1566446175.4,286047000.6,N
1566446195.2,286047000.9,N
1566446215.0,286047000.6,N
1566446215.9,286047000.6,N
1566446235.8,286046999.9,N
1566446255.6,286047000.0,N
1566446275.4,286047000.0,N
1566446295.3,286046999.7,N
1566446315.1,286046999.7,N
1566446335.9,286047001.1,N
1566446355.7,286046999.3,N
1566446375.5,286046999.1,N
1566446395.4,286047000.5,N
